Temperature
5 3 2 3 3 4 3 3 3 3 3 3 2 2 2 2 2 2 2 2 2 3 3 3 4 4 4 5 5 5 5 5 5 5 5 6 6 6 6 7 7 7 7 7
3 2 3 3 3 3 3 3 2 2 3 3 1 1 2 2 1 2 2 2 2 2 2 3 3 3 4 4 4 5 5 5 5 5 5 5 5 5 6 6 6 7 7 7
4 3 3 3 3 3 3 2 2 2 2 2 1 1 1 2 2 2 1 2 2 2 1 2 2 3 3 3 3 4 4 4 4 4 4 4 4 5 5 5 6 6 6 6
2 2 3 3 3 3 2 2 2 2 1 0 1 1 1 1 1 1 1 1 1 1 1 1 2 2 2 3 3 3 4 4 4 4 4 4 4 4 4 5 5 5 5 6
2 2 2 2 2 2 2 2 1 1 0 -1 -0 -0 1 -0 0 0 -0 0 1 1 1 1 1 2 2 2 2 3 3 3 3 3 3 3 3 3 4 4 4 5 5 5
2 2 2 2 2 2 1 1 0 -1 -1 -0 -0 -0 0 -1 -0 -0 -1 -0 -0 0 0 1 1 1 2 2 2 2 2 3 3 3 3 3 3 3 3 4 4 4 4 5
2 2 1 1 1 1 0 -0 0 0 -1 -0 -0 -0 -0 -1 -1 -1 -1 -1 -0 -0 -0 0 0 1 1 1 2 2 2 2 2 2 2 2 2 3 3 3 3 4 4 4
1 1 1 0 0 -0 -0 -0 0 1 0 -0 -1 -1 -1 -1 -1 -1 -1 -1 -1 -0 -0 -0 -0 0 0 1 1 1 1 1 1 1 2 2 2 2 2 2 3 3 3 4
0 1 0 0 0 0 -0 -1 -1 -2 -2 -2 -2 -2 -2 -1 -2 -2 -1 -1 -1 -1 -1 -1 -1 -0 -0 0 0 0 1 1 1 1 1 1 1 1 2 2 2 2 3 3
-1 -1 -1 -1 -0 -0 -1 -2 -3 -2 -1 -1 -2 -2 -2 -2 -2 -3 -3 -2 -1 -1 -1 -1 -1 -1 -1 -0 -0 0 0 0 0 0 0 0 1 1 1 1 2 2 2 3
-2 -2 -2 -2 -2 -2 -2 -2 -3 -3 -3 -2 -2 -1 -2 -3 -3 -3 -3 -2 -2 -2 -2 -2 -2 -1 -1 -1 -1 -0 -0 -0 -0 -0 -0 -0 0 0 1 1 1 1 1 2
-2 -3 -3 -2 -2 -2 -3 -3 -4 -2 -3 -4 -4 -2 -2 -3 -3 -2 -2 -2 -2 -2 -2 -2 -2 -2 -2 -1 -1 -1 -1 -1 -1 -1 -1 -1 -0 -0 0 0 0 1 1 1
-3 -3 -2 -1 -2 -3 -3 -4 -4 -4 -4 -5 -4 -2 -3 -3 -3 -2 -2 -2 -2 -2 -2 -3 -3 -3 -2 -2 -2 -1 -1 -1 -1 -1 -1 -1 -1 -1 -1 -0 -0 -0 0 1
-2 -4 -2 -0 -1 -3 -4 -4 -5 -4 -4 -5 -4 -3 -3 -3 -4 -3 -3 -3 -3 -3 -3 -3 -3 -3 -3 -3 -2 -2 -2 -2 -2 -2 -2 -2 -2 -1 -1 -1 -0 -0 -0 0
-3 -4 -4 -4 -3 -4 -4 -4 -4 -5 -5 -4 -4 -4 -3 -4 -4 -3 -3 -3 -3 -3 -3 -3 -4 -4 -4 -3 -3 -3 -3 -3 -3 -3 -3 -2 -2 -2 -2 -1 -1 -1 -1 -1
-4 -4 -5 -5 -4 -4 -4 -4 -4 -4 -5 -5 -5 -4 -4 -4 -4 -4 -3 -3 -4 -4 -4 -4 -4 -4 -4 -4 -4 -4 -3 -3 -3 -3 -3 -3 -3 -3 -2 -2 -2 -2 -1 -1
-5 -5 -5 -5 -5 -4 -4 -4 -5 -5 -6 -6 -5 -4 -5 -5 -5 -4 -4 -4 -4 -4 -4 -4 -5 -5 -5 -4 -4 -4 -4 -4 -4 -4 -4 -4 -3 -3 -3 -3 -2 -2 -2 -1
-5 -5 -5 -5 -5 -4 -2 -4 -5 -5 -6 -6 -6 -6 -5 -5 -4 -4 -3 -4 -4 -4 -5 -5 -5 -5 -5 -5 -5 -5 -5 -5 -5 -4 -4 -4 -4 -4 -3 -3 -3 -3 -3 -2
-6 -5 -6 -6 -6 -5 -4 -4 -6 -5 -5 -6 -6 -6 -5 -5 -5 -4 -4 -4 -4 -5 -5 -5 -6 -6 -5 -5 -5 -5 -5 -5 -5 -5 -5 -5 -5 -4 -4 -4 -3 -3 -3 -3
-7 -6 -6 -6 -5 -4 -3 -5 -5 -5 -5 -5 -6 -6 -6 -6 -7 -6 -4 -5 -5 -5 -6 -6 -6 -6 -6 -6 -6 -6 -6 -6 -6 -6 -6 -5 -5 -5 -5 -4 -4 -4 -4 -4
-7 -8 -7 -7 -7 -5 -5 -6 -5 -5 -4 -4 -5 -5 -6 -7 -6 -5 -5 -5 -6 -6 -6 -6 -6 -6 -6 -6 -6 -6 -6 -6 -6 -6 -6 -6 -6 -6 -5 -5 -5 -5 -5 -4
-7 -8 -8 -8 -7 -5 -5 -6 -6 -5 -4 -4 -4 -5 -5 -5 -5 -6 -6 -6 -6 -6 -7 -7 -7 -7 -7 -7 -7 -7 -7 -7 -7 -7 -7 -6 -6 -6 -6 -6 -6 -5 -5 -5
-7 -6 -7 -7 -5 -4 -5 -5 -4 -4 -4 -4 -5 -5 -6 -6 -6 -6 -6 -7 -7 -7 -7 -7 -7 -7 -7 -7 -7 -7 -7 -7 -7 -7 -7 -7 -7 -7 -7 -6 -6 -6 -6 -6
-7 -7 -7 -7 -7 -6 -5 -4 -4 -5 -5 -5 -5 -6 -6 -6 -7 -7 -7 -7 -7 -8 -8 -8 -8 -8 -8 -8 -8 -8 -8 -8 -8 -8 -7 -7 -7 -7 -7 -7 -7 -7 -7 -6
-7 -8 -8 -8 -8 -6 -5 -5 -5 -5 -5 -6 -6 -6 -7 -7 -7 -7 -8 -8 -8 -8 -8 -8 -9 -9 -8 -8 -8 -8 -8 -8 -8 -8 -8 -8 -8 -8 -7 -7 -7 -7 -7 -7
-8 -8 -7 -6 -6 -6 -5 -4 -5 -6 -6 -6 -7 -7 -7 -7 -8 -8 -8 -8 -8 -9 -9 -9 -9 -9 -9 -9 -9 -8 -8 -8 -8 -8 -8 -8 -8 -8 -8 -8 -8 -7 -8 -7
Wind_Speed
4 5 2 1 1 2 2 2 3 4 2 2 6 9 9 5 4 4 4 3 3 4 4 3 2 2 3 2 2 1 0 1 1 0 0 1 2 2 2 2 2 2 2 3
5 2 2 1 1 1 0 1 2 3 2 3 5 9 8 5 4 4 4 4 3 3 4 4 4 3 3 4 3 2 1 1 1 1 2 2 2 2 3 2 2 3 3 3
3 2 1 1 2 1 1 2 3 4 5 2 4 7 4 3 2 2 2 2 2 2 3 3 3 3 4 4 4 4 3 2 2 1 1 1 1 2 2 2 2 3 3 3
1 2 2 1 1 1 2 2 2 3 3 4 2 5 6 3 4 3 3 3 3 2 2 2 3 4 4 4 5 4 4 3 2 1 2 2 2 3 4 3 3 4 4 3
1 1 1 1 2 0 3 2 2 2 1 3 2 2 7 3 5 6 5 4 3 2 2 3 3 3 4 4 4 4 4 3 3 2 2 3 3 4 3 3 3 3 3 4
1 1 0 1 2 0 1 3 3 3 3 3 3 4 6 3 4 5 4 3 3 2 3 3 3 4 5 5 5 5 4 4 3 2 2 3 4 4 4 4 4 4 3 3
4 2 2 1 2 4 5 4 4 5 3 5 2 3 7 5 4 3 4 4 4 2 2 3 4 5 5 6 6 5 5 4 4 3 3 3 4 5 6 5 5 4 4 4
1 5 2 1 1 0 1 4 4 3 5 5 3 5 6 3 3 3 3 3 4 4 4 4 4 4 5 6 6 5 5 5 4 4 4 4 4 4 5 5 5 5 5 5
2 4 2 1 1 3 2 1 3 3 1 4 6 6 6 3 4 4 4 4 5 5 5 5 5 5 5 6 6 5 5 5 5 5 5 5 4 4 4 4 4 4 4 5
4 4 3 2 2 2 2 4 4 3 2 5 6 5 4 5 5 4 4 5 5 6 6 6 6 6 6 6 6 6 5 5 5 5 5 5 4 4 4 4 4 5 5 5
2 2 4 2 2 3 2 2 2 3 3 3 5 7 5 6 5 5 6 5 6 7 7 6 6 6 6 6 6 6 6 5 5 5 5 5 5 4 3 4 5 5 5 5
2 3 3 5 2 2 4 5 5 3 4 4 3 8 4 4 4 4 5 6 6 7 6 6 6 6 6 6 6 6 6 6 6 5 5 5 5 5 4 5 5 5 5 5
4 3 2 5 2 1 1 3 3 3 2 4 4 8 3 3 5 5 6 7 7 7 6 6 5 6 7 7 7 6 6 6 6 5 5 5 5 5 5 5 5 5 5 5
3 4 6 8 6 3 4 4 5 5 4 5 9 12 10 8 8 8 7 7 7 7 6 6 6 6 7 7 7 7 7 6 6 5 5 6 6 5 6 6 5 5 4 4
3 4 5 8 7 5 8 9 8 10 10 9 10 11 15 9 8 8 7 7 7 7 7 7 7 7 7 8 7 7 7 7 6 5 5 6 6 6 5 6 5 5 4 5
2 3 2 5 5 6 9 11 10 11 10 12 12 15 11 8 6 6 7 7 7 8 8 8 8 8 8 8 7 7 8 7 6 6 6 6 6 6 6 6 5 5 5 4
3 3 1 4 4 4 8 8 8 6 6 8 11 12 6 6 7 8 7 7 8 9 8 8 8 8 8 8 7 7 8 6 6 6 6 6 6 6 6 6 5 5 4 4
6 5 2 3 3 6 7 2 6 7 7 9 9 8 6 8 7 7 6 6 7 8 8 8 8 9 8 7 7 7 6 5 5 6 6 6 6 6 6 5 5 5 5 4
4 5 3 2 3 8 8 3 3 5 6 7 9 10 8 6 5 5 4 5 6 7 7 7 7 8 7 7 7 6 6 5 5 6 6 6 6 5 5 5 5 5 4 4
3 3 3 3 3 7 6 2 1 2 5 4 5 7 5 2 4 6 4 5 6 6 6 7 7 7 7 7 6 5 6 5 6 7 7 6 6 5 5 5 5 4 4 4
2 2 5 6 6 9 6 1 3 2 6 3 3 5 4 4 6 6 6 6 5 6 7 7 6 6 7 7 5 5 6 7 7 7 6 6 5 5 5 4 4 4 4 4
7 6 6 5 5 9 3 4 5 7 2 2 3 4 4 6 6 6 6 6 6 7 7 7 7 7 7 6 5 5 6 7 6 6 6 5 5 5 4 4 4 3 3 3
7 8 6 9 8 4 5 6 4 1 2 3 3 4 4 5 5 6 6 6 6 6 7 7 7 8 7 6 5 6 7 7 6 5 5 5 6 5 4 3 3 3 2 2
4 3 4 6 8 6 5 5 4 4 4 4 4 4 3 4 5 6 6 6 6 6 6 6 7 7 8 7 6 6 7 6 5 5 5 5 5 4 4 3 3 3 2 2
6 5 4 6 7 5 5 6 5 4 3 3 3 3 4 4 5 5 5 6 6 7 6 6 6 7 8 7 7 7 6 5 5 5 5 5 5 4 4 4 3 3 2 3
4 6 6 8 6 5 5 3 3 3 4 4 4 4 4 4 5 5 5 5 5 6 6 6 6 7 7 7 7 7 6 4 4 5 5 4 4 4 3 3 4 6 5 6
Wind_Direction
36 61 59 244 201 175 169 190 252 265 279 267 251 267 276 264 253 264 266 258 270 274 290 305 318 332 349 353 353 329 343 312 11 52 293 256 256 276 298 310 265 235 220 194
47 33 258 274 317 18 135 236 274 297 324 288 282 281 273 252 230 233 238 242 252 305 331 333 341 353 352 346 343 329 294 278 285 221 216 226 240 246 264 287 286 240 228 206
127 244 290 47 33 15 301 212 245 277 321 324 315 298 276 288 242 263 237 227 246 268 286 310 336 343 352 344 333 328 319 300 295 281 247 265 292 300 287 268 270 287 247 219
64 308 16 39 5 57 276 248 260 293 341 305 5 296 290 297 305 295 280 286 289 311 318 333 339 341 336 320 316 314 312 309 290 276 220 214 233 252 268 251 248 281 265 238
307 314 10 326 295 216 250 300 290 290 203 315 308 234 289 321 298 294 290 292 305 315 328 333 332 330 331 326 319 314 322 323 317 298 238 222 246 251 270 257 252 255 272 255
275 308 272 257 316 314 333 16 23 39 68 299 245 197 284 261 262 299 310 304 303 314 328 329 329 342 344 339 333 327 331 325 320 300 266 237 244 257 266 264 251 249 250 254
333 322 349 19 14 16 44 63 18 354 353 259 264 223 253 260 272 272 282 294 304 311 331 330 331 337 337 334 332 332 328 319 314 295 278 267 254 245 245 246 243 248 248 252
343 297 284 353 124 219 26 122 149 228 255 285 302 244 256 276 301 299 302 307 320 324 325 319 316 320 319 317 319 322 319 314 315 304 285 271 261 255 258 244 243 241 239 245
193 267 343 22 49 127 120 161 162 148 294 287 275 283 300 296 326 336 339 335 322 322 319 312 315 314 311 309 310 308 307 307 309 300 292 280 273 269 270 265 255 249 251 260
160 262 290 323 49 38 118 142 104 138 220 273 289 276 263 278 286 301 308 307 305 310 313 310 312 312 309 304 307 311 310 303 299 297 296 297 286 273 268 273 270 261 261 266
130 190 302 342 199 206 128 132 142 154 181 202 277 275 233 232 246 258 270 279 287 295 301 302 307 311 310 311 311 314 320 316 307 303 303 302 290 284 282 275 270 269 266 263
146 141 264 259 259 216 182 181 159 177 235 210 232 272 264 238 264 262 273 285 293 295 297 299 305 313 316 314 312 315 319 310 303 301 305 304 306 298 284 282 277 276 274 268
143 134 322 329 321 336 251 213 184 160 158 197 218 266 297 317 309 297 287 293 299 301 301 307 311 310 310 308 308 311 313 307 305 307 308 308 307 305 294 283 278 276 272 274
135 171 202 231 247 207 242 235 197 173 208 232 234 260 285 296 299 304 299 295 298 300 302 307 308 307 308 306 307 310 308 307 306 306 306 306 306 302 298 294 279 272 271 268
131 218 239 256 260 243 245 246 217 213 216 226 251 257 270 281 282 285 288 294 302 305 307 307 308 308 309 309 309 310 309 310 305 304 305 303 304 304 302 301 290 277 271 272
154 220 266 277 262 254 266 257 231 229 234 243 262 272 268 278 286 286 287 292 297 301 305 306 307 308 307 305 305 308 309 306 302 301 298 301 307 309 305 302 298 289 279 276
179 173 219 268 305 322 275 245 208 208 216 210 237 255 283 291 286 285 284 284 287 295 302 306 306 304 302 300 300 301 303 304 305 307 308 308 309 307 306 304 303 297 288 287
165 161 193 278 358 253 246 203 193 210 238 224 244 268 275 270 279 281 273 271 285 299 303 304 304 304 303 300 300 300 302 303 305 306 307 307 308 305 307 302 296 294 288 281
162 162 180 209 266 277 288 255 184 204 265 234 240 265 282 297 312 296 277 276 280 291 294 295 297 298 304 304 304 308 309 307 308 305 304 305 302 300 302 300 295 288 287 287
85 128 166 183 225 252 262 273 200 118 281 259 227 259 278 331 304 291 303 311 308 308 307 307 311 314 315 310 309 309 308 309 304 302 300 300 299 299 298 295 295 289 290 290
145 166 196 208 232 263 265 235 118 175 263 277 232 250 240 228 246 281 305 310 310 312 313 317 318 317 312 313 313 310 308 303 299 300 301 301 300 297 292 295 296 294 297 301
182 182 199 183 212 256 218 142 187 231 270 252 254 251 247 259 277 292 301 307 313 317 318 320 320 315 314 317 315 308 303 300 302 304 305 303 301 298 302 304 305 304 301 306
200 197 195 197 218 249 178 200 229 229 254 265 268 273 264 274 282 294 300 302 307 309 313 316 314 314 316 317 313 303 302 308 310 311 311 310 303 302 304 302 302 304 302 300
242 199 200 242 261 263 249 252 268 257 255 271 276 281 275 273 284 294 300 306 309 310 311 315 317 317 318 318 314 305 307 313 315 314 313 312 310 305 303 303 297 290 286 284
224 183 212 251 275 296 270 246 252 266 276 283 290 276 272 276 285 287 293 297 301 307 311 313 311 310 312 316 316 313 315 319 319 315 311 312 312 309 313 315 311 304 283 271
197 189 203 240 237 227 257 257 234 251 266 270 281 290 290 273 277 287 289 292 297 302 308 312 311 312 312 315 316 317 315 314 315 317 317 314 313 313 315 318 322 327 319 321
Height
1530 1534 1538 1538 1537 1536 1537 1539 1539 1536 1533 1534 1532 1528 1523 1522 1521 1519 1518 1518 1518 1517 1517 1517 1516 1516 1515 1515 1515 1515 1515 1515 1515 1515 1515 1515 1515 1517 1518 1518 1519 1521 1522 1523
1535 1538 1537 1536 1536 1536 1536 1538 1539 1536 1533 1533 1531 1526 1520 1518 1517 1516 1516 1515 1515 1515 1514 1514 1513 1513 1513 1512 1512 1512 1512 1512 1512 1512 1512 1512 1512 1513 1514 1515 1516 1517 1518 1519
1536 1539 1536 1536 1536 1536 1537 1538 1538 1537 1534 1532 1532 1525 1518 1515 1514 1514 1514 1513 1513 1512 1512 1512 1511 1511 1510 1510 1509 1509 1509 1509 1508 1508 1508 1509 1509 1510 1510 1510 1511 1512 1513 1515
1539 1537 1536 1536 1536 1536 1537 1535 1535 1536 1539 1540 1536 1534 1519 1516 1514 1512 1511 1510 1510 1510 1510 1510 1509 1509 1508 1508 1507 1507 1506 1506 1505 1505 1505 1505 1505 1505 1505 1506 1507 1508 1509 1510
1540 1538 1538 1537 1537 1536 1536 1535 1536 1537 1539 1543 1539 1540 1523 1518 1515 1512 1510 1510 1509 1509 1508 1508 1507 1506 1506 1505 1505 1504 1503 1502 1502 1502 1501 1501 1501 1501 1502 1502 1503 1504 1505 1506
1540 1539 1539 1538 1537 1536 1536 1537 1538 1541 1544 1544 1538 1540 1526 1522 1516 1512 1510 1509 1508 1508 1507 1506 1506 1505 1504 1503 1502 1501 1500 1499 1498 1498 1498 1497 1497 1497 1497 1498 1498 1499 1500 1501
1542 1540 1539 1538 1538 1538 1539 1543 1548 1546 1551 1542 1535 1535 1526 1517 1514 1512 1510 1508 1507 1507 1506 1505 1504 1502 1501 1500 1499 1498 1497 1495 1495 1495 1493 1493 1493 1493 1493 1493 1493 1494 1495 1496
1546 1544 1541 1540 1540 1542 1542 1544 1549 1550 1547 1541 1538 1534 1521 1514 1512 1511 1509 1508 1507 1506 1505 1504 1502 1501 1500 1498 1497 1495 1493 1492 1491 1491 1490 1489 1488 1488 1488 1489 1489 1489 1490 1491
1549 1544 1541 1540 1540 1541 1543 1547 1548 1555 1556 1554 1540 1532 1520 1513 1512 1510 1509 1508 1506 1505 1504 1503 1501 1499 1498 1496 1494 1493 1491 1489 1488 1487 1486 1485 1484 1483 1483 1484 1485 1484 1485 1486
1547 1550 1544 1542 1541 1542 1543 1546 1552 1554 1552 1547 1539 1534 1524 1515 1512 1511 1509 1507 1506 1505 1503 1501 1499 1497 1495 1494 1492 1490 1487 1485 1484 1483 1481 1480 1479 1479 1479 1479 1480 1480 1480 1481
1546 1551 1547 1545 1545 1545 1547 1548 1549 1553 1554 1551 1544 1528 1516 1513 1510 1509 1507 1506 1505 1503 1501 1499 1497 1495 1493 1491 1489 1486 1484 1482 1481 1479 1477 1476 1475 1475 1474 1474 1475 1475 1475 1476
1546 1551 1552 1546 1543 1542 1543 1545 1548 1549 1550 1554 1549 1529 1511 1510 1507 1506 1505 1504 1503 1502 1500 1497 1495 1492 1490 1488 1485 1483 1480 1479 1477 1475 1473 1472 1471 1470 1470 1469 1469 1470 1470 1471
1545 1550 1550 1542 1545 1546 1544 1543 1545 1547 1550 1552 1546 1525 1510 1508 1507 1505 1504 1502 1501 1499 1498 1495 1493 1490 1487 1485 1482 1479 1477 1475 1473 1472 1470 1468 1467 1465 1464 1464 1464 1465 1465 1465
1541 1547 1546 1539 1535 1540 1543 1542 1542 1544 1546 1544 1536 1520 1511 1509 1507 1505 1503 1501 1499 1497 1495 1493 1490 1487 1484 1481 1479 1476 1474 1472 1470 1468 1466 1464 1462 1461 1460 1459 1459 1460 1460 1460
1541 1545 1544 1540 1536 1537 1536 1534 1536 1538 1536 1534 1524 1520 1508 1507 1506 1503 1501 1499 1497 1494 1492 1490 1487 1484 1481 1478 1475 1473 1470 1468 1466 1464 1461 1459 1458 1457 1456 1455 1455 1455 1455 1455
1541 1543 1543 1540 1534 1534 1531 1526 1528 1529 1529 1526 1522 1515 1504 1504 1503 1501 1498 1496 1494 1492 1489 1486 1484 1480 1477 1474 1472 1469 1466 1464 1462 1459 1457 1456 1455 1453 1452 1451 1450 1450 1450 1450
1540 1543 1543 1540 1536 1533 1528 1519 1521 1522 1520 1520 1517 1508 1503 1502 1500 1498 1495 1494 1491 1489 1486 1483 1480 1477 1474 1471 1468 1465 1463 1460 1458 1456 1453 1452 1450 1449 1448 1447 1446 1445 1445 1445
1538 1541 1543 1542 1540 1533 1515 1513 1513 1514 1513 1512 1508 1504 1501 1499 1497 1495 1493 1491 1488 1486 1483 1480 1477 1473 1470 1467 1464 1462 1459 1457 1454 1453 1451 1449 1447 1446 1444 1443 1442 1442 1441 1440
1533 1537 1541 1543 1542 1529 1514 1510 1511 1513 1509 1504 1504 1500 1499 1497 1494 1491 1490 1489 1486 1484 1481 1477 1474 1470 1466 1463 1461 1458 1455 1453 1451 1449 1447 1445 1444 1442 1441 1440 1439 1438 1438 1436
1534 1536 1540 1542 1539 1527 1510 1509 1507 1510 1509 1500 1499 1498 1497 1496 1496 1490 1487 1485 1483 1480 1477 1474 1470 1466 1463 1460 1457 1455 1452 1449 1447 1445 1443 1441 1440 1438 1437 1436 1435 1434 1433 1432
1537 1539 1541 1540 1537 1521 1509 1507 1508 1513 1504 1497 1496 1495 1495 1494 1493 1489 1485 1483 1480 1477 1474 1470 1467 1463 1460 1457 1454 1451 1449 1446 1444 1442 1440 1438 1436 1435 1433 1432 1431 1430 1429 1428
1529 1534 1537 1536 1535 1520 1504 1505 1507 1502 1497 1495 1494 1493 1492 1490 1488 1485 1483 1480 1477 1474 1470 1467 1464 1460 1457 1454 1452 1448 1446 1444 1441 1439 1437 1435 1433 1431 1430 1429 1427 1427 1426 1424
1520 1517 1517 1517 1510 1501 1499 1497 1497 1496 1495 1493 1492 1490 1489 1487 1484 1482 1480 1477 1474 1471 1468 1464 1461 1457 1454 1452 1449 1446 1443 1441 1438 1436 1433 1431 1430 1428 1427 1425 1424 1423 1422 1421
1512 1510 1511 1509 1501 1497 1496 1495 1494 1493 1492 1491 1490 1488 1486 1483 1481 1479 1477 1474 1471 1468 1465 1461 1458 1454 1451 1448 1446 1443 1441 1438 1435 1433 1431 1428 1426 1424 1423 1422 1421 1420 1419 1418
1504 1506 1506 1503 1497 1494 1492 1491 1491 1490 1489 1488 1486 1485 1483 1481 1478 1476 1473 1471 1468 1465 1462 1459 1455 1451 1448 1445 1443 1440 1438 1435 1433 1430 1428 1426 1424 1422 1420 1419 1418 1417 1416 1415
1498 1499 1500 1495 1491 1491 1488 1488 1488 1487 1486 1484 1483 1481 1480 1478 1475 1473 1470 1468 1466 1462 1459 1456 1452 1449 1445 1443 1440 1438 1436 1433 1430 1428 1426 1424 1422 1420 1418 1416 1415 1414 1414 1413